CZ-3C DEB, 44526

Orbit data source: Space-Track

CZ-3C DEB, 44526 is space debris in HEO originally from a launch on Sun, 31 Oct 2010 UTC launched from the Xichang Space Center, China (XSC). Debris objects in space refer to the collection of defunct objects orbiting the Earth. Examples of debris include non-operational satellites, rocket bodies, and fragments generated from explosions, collisions, or faulty payload assembly.

Loading next visibility...
Identifier
44526, 2010-057BL
Orbit
HEO
Last TLE update
21 hours ago
Origin
Manufacturer
CALT
Mission
Spacecraft
Bus & Motor
Unknown
Mass
Unknown
Launch date (UTC)
2010-10-31 (15 years ago)
Launch vehicle
Unknown
Launch site
Xichang Space Center, China (XSC)
Object type
Payload
Rocket body
Debris
Shape & HBR
Unknown
Radar Cross Section
Medium (>0.1 m² and <1 m²)

Expand to show TLE details & history

TLE from 21 hours ago
0 CZ-3C DEB
1 44526U 10057BL  25128.41910084  .00000069  00000-0  44627-3 0  9990
2 44526  21.4342 252.1493 7014313  31.9203 355.7139  2.49053916 86165
Epoch: 2025-05-08T10:03Z
Definitive object data (Epoch: 2025-05-08T10:03:30.312Z)
Latitude
-0.00008°
Longitude
-125.20089°
Altitude
951.216 km
Speed
9.561 km/s
True Right ascension
16h 48m 39s
True Declination
0° 00' 00"
Sunlit
Object was in full shadow at TLE epoch
Visualization TLE readout
Latitude
2.15244°
Longitude
48.96376°
Altitude
19,573.751 km
Speed
3.658 km/s
Apparent Right ascension
04h 14m 02s
Apparent Declination
-5° 46' 28"
Sunlit
Object is in daylight
Visualization observer readout
Local Sidereal Time
15:13:40
Azimuth
334.34° NNW
Elevation
-53.258°
Doppler factor
1
Orbital elements
Apogee altitude
32,745.048 km
Perigee altitude
487.235 km
Semi-major axis
22,994.279 km
Eccentricity
0.7014313
Inclination
21.4342°
RAAN
252.1493°
Arg. of periapsis
31.9203°
True anomaly
327.2665°
Mean anomaly
355.7139°
Eccentric anomaly
345.97273°
Mean motion
0.62246 °/min
BSTAR
0.00044627
Orbital period
578.35 mins
Loading maneuver chart data...
Loading SW <> Apogee altitude chart data...
Loading historical data...
Loading historical data...
Loading historical data...
Loading historical data...
Loading historical data...
Loading historical data...
Loading historical data...

CZ-3C DEB Visibility forecast

Observer location: undefined°, undefined°

Span
Click to sort rows by Start time (UTC) header in descending order
Start Az.
Max El. time (UTC)
Max El. Az.
Max El.
End time (UTC)
End Az.
459 mins2025-05-09 15:15:44.160Z225.979° WSW2025-05-09 15:23:44.160Z165.073° S32.798°2025-05-09 22:54:44.160Z147.544° SSE
|